Total_Precipitation_Accumulation
0.01 0.00 0.00 0.00 0.01 0.02 0.02 0.02 0.01 0.01 0.01 0.01 0.02 0.03 0.04 0.02 0.01 0.01 0.01 0.01 0.01 0.01 0.00 0.01 0.03 0.07 0.14 0.14 0.13 0.15 0.19 0.23 0.20 0.15 0.18 0.24 0.26 0.25 0.24 0.26 0.26 0.42 0.54 0.50
0.01 0.00 0.00 0.00 0.00 0.01 0.02 0.01 0.01 0.01 0.01 0.00 0.00 0.01 0.02 0.02 0.02 0.01 0.01 0.01 0.00 0.00 0.00 0.00 0.00 0.01 0.02 0.04 0.06 0.10 0.14 0.21 0.27 0.27 0.31 0.43 0.55 0.58 0.57 0.52 0.47 0.47 0.44 0.42
0.00 0.00 0.00 0.00 0.00 0.00 0.00 0.00 0.00 0.00 0.00 0.00 0.00 0.01 0.02 0.02 0.03 0.02 0.01 0.01 0.01 0.01 0.01 0.00 0.00 0.01 0.01 0.02 0.04 0.10 0.18 0.31 0.46 0.60 0.80 1.02 1.26 1.31 1.15 0.94 0.85 0.80 0.71 0.58
0.00 0.00 0.00 0.00 0.00 0.00 0.00 0.00 0.00 0.01 0.01 0.00 0.00 0.00 0.02 0.05 0.06 0.06 0.06 0.06 0.05 0.04 0.04 0.04 0.03 0.03 0.05 0.09 0.15 0.26 0.37 0.53 0.67 0.86 1.06 1.29 1.50 1.64 1.64 1.58 1.46 1.29 1.09 0.83
0.00 0.00 0.00 0.00 0.00 0.00 0.00 0.00 0.00 0.00 0.01 0.01 0.00 0.01 0.04 0.11 0.17 0.21 0.23 0.23 0.20 0.16 0.15 0.14 0.12 0.11 0.14 0.24 0.36 0.47 0.67 0.81 0.90 0.94 1.03 1.24 1.34 1.39 1.50 1.61 1.61 1.52 1.30 1.05
0.00 0.00 0.00 0.00 0.00 0.00 0.00 0.00 0.00 0.00 0.01 0.01 0.00 0.04 0.13 0.24 0.32 0.39 0.39 0.35 0.31 0.23 0.19 0.21 0.23 0.23 0.27 0.49 0.71 0.83 0.92 0.97 0.92 0.88 0.89 1.02 1.18 1.26 1.35 1.44 1.46 1.36 1.18 1.07
0.00 0.00 0.00 0.00 0.00 0.00 0.00 0.00 0.01 0.01 0.02 0.03 0.03 0.11 0.26 0.28 0.27 0.30 0.32 0.30 0.26 0.17 0.12 0.15 0.23 0.32 0.50 0.76 0.99 1.11 1.09 0.97 0.83 0.78 0.82 0.90 1.02 1.14 1.19 1.17 1.13 1.05 0.96 0.91
0.00 0.00 0.00 0.00 0.00 0.00 0.00 0.00 0.03 0.03 0.03 0.05 0.11 0.27 0.38 0.30 0.21 0.15 0.13 0.13 0.14 0.16 0.17 0.16 0.21 0.34 0.59 0.87 1.14 1.37 1.33 1.13 0.91 0.84 0.87 0.86 0.90 0.91 0.88 0.84 0.82 0.80 0.76 0.72
0.00 0.00 0.00 0.00 0.00 0.00 0.00 0.01 0.03 0.08 0.05 0.06 0.11 0.26 0.29 0.20 0.13 0.10 0.09 0.11 0.15 0.16 0.24 0.29 0.37 0.43 0.60 0.82 1.16 1.37 1.40 1.27 1.11 1.04 0.99 0.97 0.85 0.73 0.63 0.56 0.54 0.54 0.50 0.45
0.00 0.00 0.00 0.00 0.00 0.00 0.01 0.02 0.05 0.13 0.13 0.11 0.15 0.23 0.18 0.09 0.07 0.08 0.10 0.13 0.16 0.21 0.25 0.35 0.55 0.71 0.90 0.84 0.98 1.16 1.14 1.11 1.10 1.11 1.15 1.09 0.88 0.73 0.64 0.58 0.53 0.46 0.42 0.37
0.00 0.00 0.00 0.00 0.00 0.01 0.03 0.05 0.06 0.12 0.17 0.20 0.27 0.32 0.20 0.15 0.16 0.19 0.23 0.25 0.27 0.32 0.37 0.47 0.59 0.68 0.82 0.91 0.95 0.99 0.98 0.97 0.97 0.93 0.92 0.84 0.66 0.56 0.52 0.52 0.49 0.39 0.34 0.31
0.00 0.00 0.00 0.00 0.01 0.04 0.10 0.12 0.12 0.20 0.26 0.31 0.45 0.49 0.32 0.32 0.36 0.42 0.47 0.49 0.52 0.52 0.55 0.63 0.69 0.80 0.85 0.85 0.88 0.94 0.88 0.83 0.79 0.70 0.65 0.57 0.44 0.40 0.45 0.46 0.38 0.28 0.26 0.25
0.00 0.00 0.00 0.00 0.01 0.08 0.25 0.31 0.22 0.19 0.28 0.42 0.54 0.55 0.48 0.50 0.56 0.66 0.75 0.73 0.66 0.61 0.59 0.65 0.68 0.76 0.80 0.83 0.87 0.91 0.88 0.89 0.86 0.67 0.56 0.52 0.47 0.45 0.46 0.39 0.31 0.22 0.21 0.23
0.00 0.00 0.00 0.01 0.03 0.12 0.30 0.39 0.30 0.26 0.40 0.45 0.50 0.58 0.62 0.69 0.79 0.81 0.81 0.75 0.62 0.50 0.42 0.40 0.39 0.47 0.53 0.60 0.68 0.74 0.73 0.91 1.04 0.96 0.73 0.61 0.56 0.49 0.42 0.32 0.26 0.23 0.26 0.30
0.00 0.00 0.00 0.01 0.01 0.05 0.14 0.23 0.22 0.25 0.32 0.35 0.39 0.48 0.62 0.70 0.77 0.76 0.66 0.49 0.36 0.27 0.21 0.17 0.16 0.21 0.29 0.38 0.44 0.52 0.65 0.84 0.88 0.71 0.51 0.42 0.40 0.35 0.28 0.23 0.20 0.18 0.19 0.20
0.00 0.00 0.00 0.00 0.00 0.00 0.01 0.03 0.05 0.08 0.12 0.17 0.25 0.39 0.49 0.52 0.51 0.47 0.36 0.22 0.15 0.12 0.08 0.06 0.05 0.07 0.10 0.13 0.20 0.31 0.39 0.45 0.42 0.35 0.28 0.24 0.20 0.17 0.15 0.14 0.13 0.09 0.08 0.09
0.00 0.00 0.00 0.00 0.00 0.00 0.00 0.01 0.04 0.09 0.12 0.18 0.30 0.39 0.35 0.33 0.30 0.28 0.20 0.11 0.07 0.05 0.03 0.02 0.03 0.04 0.03 0.03 0.03 0.05 0.08 0.11 0.10 0.07 0.06 0.06 0.06 0.06 0.05 0.05 0.05 0.05 0.06 0.06
0.00 0.00 0.00 0.00 0.00 0.00 0.00 0.00 0.02 0.06 0.12 0.18 0.26 0.26 0.21 0.17 0.13 0.10 0.06 0.03 0.02 0.02 0.01 0.00 0.01 0.01 0.01 0.01 0.01 0.01 0.00 0.01 0.01 0.01 0.01 0.01 0.02 0.03 0.03 0.04 0.04 0.02 0.02 0.03
0.00 0.00 0.00 0.00 0.00 0.00 0.00 0.00 0.00 0.02 0.04 0.05 0.07 0.06 0.05 0.03 0.03 0.01 0.00 0.00 0.01 0.00 0.00 0.00 0.00 0.00 0.00 0.00 0.00 0.00 0.00 0.00 0.00 0.00 0.00 0.00 0.00 0.01 0.01 0.01 0.01 0.00 0.00 0.01
0.00 0.00 0.00 0.00 0.00 0.00 0.00 0.00 0.00 0.01 0.02 0.01 0.01 0.01 0.01 0.00 0.01 0.01 0.00 0.00 0.00 0.00 0.00 0.00 0.00 0.00 0.00 0.00 0.00 0.00 0.00 0.00 0.00 0.00 0.00 0.00 0.00 0.00 0.01 0.01 0.00 0.00 0.00 0.00
0.00 0.00 0.00 0.00 0.00 0.00 0.00 0.00 0.00 0.00 0.01 0.00 0.00 0.00 0.00 0.00 0.00 0.00 0.00 0.00 0.00 0.00 0.00 0.00 0.00 0.00 0.00 0.00 0.00 0.00 0.00 0.00 0.00 0.00 0.00 0.00 0.00 0.00 0.01 0.03 0.02 0.01 0.01 0.00
0.00 0.00 0.00 0.00 0.00 0.00 0.00 0.00 0.00 0.00 0.00 0.00 0.00 0.00 0.00 0.00 0.00 0.00 0.00 0.00 0.00 0.00 0.00 0.00 0.00 0.00 0.00 0.00 0.00 0.00 0.00 0.00 0.00 0.00 0.00 0.00 0.01 0.01 0.02 0.05 0.03 0.02 0.01 0.00
0.00 0.00 0.00 0.00 0.00 0.00 0.00 0.00 0.00 0.00 0.00 0.00 0.00 0.00 0.00 0.00 0.00 0.00 0.00 0.00 0.00 0.00 0.00 0.00 0.00 0.00 0.00 0.00 0.00 0.00 0.00 0.00 0.00 0.00 0.00 0.00 0.00 0.01 0.02 0.02 0.02 0.02 0.01 0.01
0.00 0.00 0.00 0.00 0.00 0.00 0.00 0.00 0.00 0.00 0.00 0.00 0.00 0.00 0.00 0.00 0.00 0.00 0.00 0.00 0.00 0.00 0.00 0.00 0.00 0.00 0.00 0.00 0.00 0.00 0.00 0.00 0.00 0.00 0.00 0.00 0.00 0.01 0.02 0.01 0.01 0.01 0.01 0.01
0.00 0.00 0.00 0.00 0.00 0.00 0.00 0.00 0.00 0.00 0.00 0.00 0.00 0.00 0.00 0.00 0.00 0.00 0.00 0.00 0.00 0.00 0.00 0.00 0.00 0.00 0.00 0.00 0.00 0.00 0.00 0.00 0.00 0.00 0.00 0.00 0.00 0.01 0.02 0.01 0.00 0.00 0.00 0.00
0.00 0.00 0.00 0.00 0.00 0.00 0.00 0.00 0.00 0.00 0.00 0.00 0.00 0.00 0.00 0.00 0.00 0.00 0.00 0.00 0.00 0.00 0.00 0.00 0.00 0.00 0.00 0.00 0.00 0.00 0.00 0.00 0.00 0.00 0.00 0.00 0.00 0.01 0.01 0.02 0.01 0.00 0.00 0.01